Flag for Canada Weather past 2 weeks in Cape Dorset, Nunavut, Canada

Now
41 °F

Scattered clouds.


Feels Like: 33 °F
Forecast: 35 / 46 °F
Wind: 15 mph from Southwest

Location: Cape Dorset

Current Time: Sep 3, 2015 at 1:30:50 PM

Latest Report: Sep 3, 2015 at 1:00 PM


Visibility: 9 mi

Pressure: 29.96 "Hg

Humidity: 81%

Dew point: 36 °F

Location of Cape DorsetLocation

Historic Weather in Cape Dorset — Graph

°F

Cape Dorset temperature yesterday

Maximum temperature yesterday: 46 °F (at 12:00 PM)
Minimum temperature yesterday: 37 °F (at 12:00 AM)
Average temperature yesterday: 42 °F

Past Weeks' High & Low Weather Summary

 TemperatureHumidityPressure
High50 °F (Aug 20, 3:00 PM)100% (Aug 20, 11:00 PM)30.19 "Hg (Aug 20, 11:00 PM)
Low32 °F (Aug 28, 12:00 AM)53% (Sep 2, 7:00 PM)29.47 "Hg (Aug 27, 12:00 PM)
Average39 °F90%29.90 "Hg
* Reported Aug 19 12:00 Noon — Sep 3 12:00 Noon, Cape Dorset, Weather by CustomWeather, © 2015

Note: Actual official high and low records may vary slightly from our data, if they occured in-between our weather recording intervals... More about our weather records

Advertising

Cape Dorset weather history for previous 24 hours

 ConditionsComfort  
Time TempWeatherWind HumidityBarometerVisibility
12:00 PM
Thu, Sep 3
43 °FBroken clouds.10 mph76%29.97 "Hg15 mi
11:00 AM39 °FScattered clouds.10 mph87%29.96 "Hg15 mi
10:00 AM39 °FBroken clouds.14 mph93%29.97 "Hg15 mi
9:00 AM41 °FBroken clouds.10 mph81%29.97 "Hg15 mi
8:00 AM39 °FPartly sunny.10 mph81%29.98 "Hg15 mi
7:00 AM39 °FBroken clouds.8 mph81%29.99 "Hg15 mi
6:00 AM39 °FPassing clouds.6 mph81%29.98 "Hg9 mi
5:00 AM41 °FOvercast.5 mph76%29.99 "Hg9 mi
4:00 AM41 °FOvercast.8 mph76%30.00 "Hg9 mi
3:00 AM41 °FPassing clouds.6 mph76%30.00 "Hg9 mi
2:00 AM41 °FOvercast.7 mph76%30.00 "Hg9 mi
1:00 AM43 °FOvercast.7 mph71%30.00 "Hg9 mi
12:00 AM43 °FOvercast.6 mph66%30.01 "Hg9 mi
11:00 PM
Wed, Sep 2
43 °FMostly cloudy.7 mph71%30.01 "Hg9 mi
10:00 PM45 °FOvercast.5 mph66%30.01 "Hg9 mi
9:00 PM43 °FMostly cloudy.8 mph66%30.02 "Hg9 mi
8:00 PM45 °FOvercast.5 mph61%30.02 "Hg9 mi
7:00 PM46 °FOvercast.6 mph53%30.02 "Hg9 mi
6:00 PM46 °FPartly sunny.9 mph57%30.02 "Hg9 mi
5:00 PM46 °FPartly sunny.8 mph62%30.03 "Hg15 mi
4:00 PM46 °FPartly sunny.6 mph62%30.03 "Hg15 mi
3:00 PM46 °FPartly sunny.6 mph62%30.01 "Hg15 mi
2:00 PM46 °FPartly sunny.5 mph66%30.02 "Hg15 mi
1:00 PM45 °FPartly sunny.8 mph71%30.01 "Hg15 mi
Weather by CustomWeather, © 2015

See weather overviewHow to use our weather pages